Location: downtown San Diego
(32.7310°N, 117.1990°W)
Time: 18:36:57
(UTC-08:00)

Cosmos 1844 Rocket - Visible Passes

Search period start: 20 February 2019 00:00
Search period end: 02 March 2019 00:00
Orbit: 824 x 845 km, 71.0° (Epoch: 20 February)

Date Brightness Start Highest point End Pass type
(mag) Time Alt. Az. Time Alt. Az. Time Alt. Az.
20 Feb 4.8 03:35:44 11° NNE 03:39:42 22° ENE 03:43:58 10° ESE visible
20 Feb 3.0 05:18:30 10° NW 05:23:41 41° WSW 05:28:50 10° S visible
20 Feb 2.8 18:19:21 10° SSW 18:25:01 85° WNW 18:30:42 10° NNE visible
20 Feb 5.7 20:09:09 10° WNW 20:09:41 10° NW 20:10:13 10° NW visible
21 Feb 4.9 03:20:40 18° NE 03:22:26 20° ENE 03:26:29 10° ESE visible
21 Feb 2.9 05:02:28 17° NW 05:06:30 45° WSW 05:11:45 10° S visible
21 Feb 2.7 18:02:09 10° SSW 18:07:49 86° ESE 18:13:29 10° NNE visible
21 Feb 5.6 19:50:37 10° WNW 19:52:24 11° NW 19:54:09 10° NW visible
22 Feb 5.0 03:05:47 18° ENE 03:05:47 18° ENE 03:08:57 10° ESE visible
22 Feb 2.7 04:47:34 37° WNW 04:49:20 51° WSW 04:54:40 10° S visible
22 Feb 5.5 19:32:42 10° W 19:35:06 13° NW 19:37:31 10° NNW visible
23 Feb 5.5 02:50:56 11° E 02:50:56 11° E 02:51:23 10° E visible
23 Feb 2.7 04:32:44 54° SW 04:32:44 54° SW 04:37:33 10° S visible
23 Feb 5.4 19:14:55 10° W 19:17:49 14° NW 19:20:43 10° NNW visible
24 Feb 3.9 04:17:53 28° S 04:17:53 28° S 04:20:25 10° S visible
24 Feb 5.4 18:57:15 10° W 19:00:32 16° WNW 19:03:51 10° NNW visible
25 Feb 5.0 04:02:56 12° S 04:02:56 12° S 04:03:16 10° S visible
25 Feb 5.3 18:39:38 10° W 18:43:16 17° WNW 18:46:54 10° NNW visible
26 Feb 5.3 18:22:04 10° WSW 18:25:59 19° WNW 18:29:56 10° NNW visible
27 Feb 5.2 18:04:34 10° WSW 18:08:44 21° WNW 18:12:56 10° NNW visible
